Flag for Norway Weather past 2 weeks in Stavanger, Norway

Now
45 °F

Clear.


Feels Like: 45 °F
Forecast: 42 / 52 °F
Wind: 2 mph from West

Location: Stavanger / Sola

Current Time: Apr 19, 2015 at 3:18:33 AM

Latest Report: Apr 19, 2015 at 2:50 AM


Visibility: 10 mi

Pressure: 30.30 "Hg

Humidity: 66%

Dew point: 34 °F

Location of StavangerLocation

Historic Weather in Stavanger — Graph

°F

Stavanger temperature yesterday

Maximum temperature yesterday: 50 °F (at 12:50 PM)
Minimum temperature yesterday: 34 °F (at 5:20 AM)
Average temperature yesterday: 44 °F

Past Weeks' High & Low Weather Summary

 TemperatureHumidityPressure
High59 °F (Apr 11, 1:50 PM)100% (Apr 5, 12:50 PM)30.51 "Hg (Apr 5, 12:50 PM)
Low30 °F (Apr 4, 7:20 AM)46% (Apr 4, 12:20 PM)29.59 "Hg (Apr 11, 3:20 PM)
Average44 °F82%30.11 "Hg
* Reported Apr 4 1:50 AM — Apr 19 1:50 AM, Stavanger, Weather by CustomWeather, © 2015

Note: Actual official high and low records may vary slightly from our data, if they occured in-between our weather recording intervals... More about our weather records

Advertising

Stavanger weather history for previous 24 hours

 ConditionsComfort  
Time TempWeatherWind HumidityBarometerVisibility
1:50 AM
Sun, Apr 19
45 °FClear.5 mph66%30.27 "Hg10 mi
12:50 AM46 °FClear.12 mph66%30.27 "Hg10 mi
12:20 AM46 °FClear.10 mph71%30.27 "Hg10 mi
11:50 PM
Sat, Apr 18
46 °FClear.9 mph66%30.24 "Hg10 mi
11:20 PM46 °FClear.8 mph71%30.24 "Hg10 mi
10:50 PM48 °FClear.14 mph66%30.24 "Hg10 mi
10:20 PM48 °FClear.13 mph66%30.24 "Hg10 mi
9:50 PM48 °FSunny.14 mph66%30.24 "Hg10 mi
9:20 PM50 °FSunny.15 mph62%30.24 "Hg10 mi
8:50 PM50 °FSunny.13 mph62%30.24 "Hg10 mi
8:20 PM48 °FSunny.17 mph76%30.24 "Hg10 mi
7:50 PM48 °FSunny.21 mph76%30.24 "Hg10 mi
7:20 PM50 °FPassing clouds.21 mph67%30.24 "HgN/A
6:50 PM50 °FPassing clouds.20 mph67%30.24 "HgN/A
6:20 PM48 °FPassing clouds.22 mph71%30.24 "HgN/A
5:50 PM48 °FPassing clouds.23 mph71%30.27 "HgN/A
5:20 PM50 °FPassing clouds.22 mph67%30.27 "HgN/A
4:50 PM50 °FPassing clouds.18 mph67%30.30 "HgN/A
4:20 PM50 °FPassing clouds.23 mph67%30.30 "HgN/A
3:50 PM50 °FPassing clouds.23 mph67%30.30 "HgN/A
3:20 PM50 °FPassing clouds.24 mph67%30.33 "HgN/A
2:50 PM50 °FPassing clouds.23 mph67%30.33 "HgN/A
2:20 PM50 °FPassing clouds.24 mph62%30.33 "HgN/A
1:50 PM50 °FPassing clouds.20 mph67%30.33 "HgN/A
1:20 PM50 °FPassing clouds.13 mph71%30.33 "HgN/A
12:50 PM50 °FPassing clouds.14 mph71%30.36 "HgN/A
12:20 PM48 °FPassing clouds.13 mph76%30.33 "HgN/A
11:50 AM46 °FScattered clouds.12 mph82%30.36 "HgN/A
11:20 AM46 °FPartly sunny.8 mph82%30.36 "HgN/A
10:50 AM43 °FPartly sunny.9 mph87%30.36 "HgN/A
10:20 AM41 °FPartly sunny.7 mph93%30.36 "HgN/A
9:50 AM41 °FPartly sunny.9 mph93%30.36 "HgN/A
9:20 AM41 °FPartly sunny.14 mph100%30.36 "HgN/A
8:50 AM41 °FPartly sunny.3 mph93%30.36 "HgN/A
8:20 AM39 °FScattered clouds.1 mph93%30.36 "HgN/A
7:50 AM36 °FScattered clouds.1 mph93%30.36 "HgN/A
7:20 AM34 °FLight fog.No wind100%30.36 "HgN/A
6:50 AM34 °FLight fog.No wind93%30.36 "HgN/A
6:20 AM34 °FLight fog.No wind100%30.36 "HgN/A
5:50 AM34 °FLight fog.1 mph93%30.36 "HgN/A
5:20 AM34 °FLight fog.3 mph93%30.36 "HgN/A
4:50 AM36 °FLight fog.No wind93%30.36 "HgN/A
3:50 AM36 °FClear.No wind93%30.36 "Hg10 mi
Weather by CustomWeather, © 2015

See weather overviewHow to use our weather pages